EW6254 Weather Reports


Display with metric or nautical units.
time (UTC)temp
F
wind
direction
speed
MPH
gust
MPH
rain 1hr
in
rain 24hr
in
rain mn
in
humidity
%
barometer
mb
20180818010340 80 13 0.0 0.0 0.00 0.00 0.00 69 1014.7
20180818005303 81 22 0.0 0.0 0.00 0.00 0.00 68 1014.6
20180818004247 81 348 0.0 0.0 0.00 0.00 0.00 68 1014.6
20180818003212 81 5 0.0 0.0 0.00 0.00 0.00 67 1014.5
20180818002145 82 5 0.0 0.0 0.00 0.00 0.00 65 1014.5
20180818001144 82 5 0.0 0.0 0.00 0.00 0.00 64 1014.6
20180818000140 82 0 0.0 0.0 0.00 0.00 0.00 64 1014.7
20180817235145 83 33 0.0 0.0 0.00 0.00 0.00 62 1014.8
20180817234208 83 10 0.0 0.0 0.00 0.00 0.00 63 1014.8
20180817233229 83 5 0.0 0.0 0.00 0.00 0.00 63 1014.8
20180817232158 84 32 0.0 0.0 0.00 0.00 0.00 61 1014.9
20180817231152 84 31 0.0 0.0 0.00 0.00 0.00 59 1014.9
20180817230157 85 355 0.0 0.0 0.00 0.00 0.00 58 1014.9
20180817225157 85 355 0.0 0.0 0.00 0.00 0.00 59 1014.9
20180817224217 85 9 0.0 0.0 0.00 0.00 0.00 58 1014.9
20180817223229 84 30 0.0 0.0 0.00 0.00 0.00 59 1014.8
20180817222154 84 11 0.0 0.0 0.00 0.00 0.00 60 1014.9
20180817221211 84 345 0.0 0.0 0.00 0.00 0.00 60 1014.9
20180817220143 83 40 0.0 0.0 0.00 0.00 0.00 60 1015.0
20180817215116 84 49 0.0 0.0 0.00 0.00 0.00 60 1015.0
20180817214114 83 344 0.0 0.0 0.00 0.00 0.00 61 1015.0
20180817213100 84 62 0.0 0.0 0.00 0.00 0.00 59 1015.1
20180817212113 85 22 0.0 0.0 0.00 0.00 0.00 57 1015.1
20180817211057 85 36 0.0 0.0 0.00 0.00 0.00 58 1015.2
20180817210027 85 67 0.0 0.0 0.00 0.00 0.00 58 1015.2
20180817205010 85 0 0.0 0.0 0.00 0.00 0.00 58 1015.2
20180817203950 84 342 0.0 0.0 0.00 0.00 0.00 60 1015.2
20180817203011 84 349 0.0 0.0 0.00 0.00 0.00 60 1015.2
20180817201938 85 39 0.0 0.0 0.00 0.00 0.00 60 1015.2
20180817200946 84 5 0.0 0.0 0.00 0.00 0.00 60 1015.2
20180817195944 86 21 0.0 0.0 0.00 0.00 0.00 59 1015.4
20180817194930 86 49 0.0 0.0 0.00 0.00 0.00 60 1015.4
20180817193925 83 355 0.0 0.0 0.00 0.00 0.00 62 1015.4
20180817192939 84 16 0.0 0.0 0.00 0.00 0.00 60 1015.5
20180817191929 83 344 0.0 0.0 0.00 0.00 0.00 61 1015.6
20180817190855 84 298 0.0 0.0 0.00 0.00 0.00 61 1015.4
20180817185844 83 27 0.0 0.0 0.00 0.00 0.00 63 1015.5
20180817184851 83 24 0.0 0.0 0.00 0.00 0.00 63 1015.6
20180817183830 82 355 0.0 0.0 0.00 0.00 0.00 65 1015.7
20180817182830 82 17 0.0 0.0 0.00 0.00 0.00 63 1015.7
20180817181837 82 9 0.0 0.0 0.00 0.00 0.00 64 1015.7
20180817180851 83 355 0.0 0.0 0.00 0.00 0.00 64 1015.9
20180817175856 82 15 0.0 0.0 0.00 0.00 0.00 65 1015.8
20180817174823 81 355 0.0 0.0 0.00 0.00 0.00 67 1015.9
20180817173843 81 40 0.0 0.0 0.00 0.00 0.00 66 1016.0
20180817172824 82 24 0.0 0.0 0.00 0.00 0.00 64 1016.2
20180817171751 81 70 0.0 0.0 0.00 0.00 0.00 68 1016.3
20180817170759 80 20 0.0 0.0 0.00 0.00 0.00 69 1016.3
20180817165757 80 37 0.0 0.0 0.00 0.00 0.00 69 1016.3
20180817164728 80 17 0.0 0.0 0.00 0.00 0.00 69 1016.4
20180817163654 80 27 0.0 0.0 0.00 0.00 0.00 69 1016.4
20180817162619 79 12 0.0 0.0 0.00 0.00 0.00 72 1016.5
20180817161622 78 14 0.0 0.0 0.00 0.00 0.00 72 1016.4
20180817160630 78 43 0.0 0.0 0.00 0.00 0.00 75 1016.4
20180817155634 77 342 0.0 0.0 0.00 0.00 0.00 75 1016.2
20180817154655 77 5 0.0 0.0 0.00 0.00 0.00 76 1016.2
20180817153622 76 76 0.0 0.0 0.00 0.00 0.00 77 1016.4
20180817152627 76 24 0.0 0.0 0.00 0.00 0.00 78 1016.3
20180817151641 75 25 0.0 0.0 0.00 0.00 0.00 78 1016.3
20180817150700 74 20 0.0 0.0 0.00 0.00 0.00 79 1016.3
20180817145649 74 321 0.0 0.0 0.00 0.00 0.00 81 1016.3
20180817144636 73 5 0.0 0.0 0.00 0.00 0.00 82 1016.2
20180817143605 73 10 0.0 0.0 0.00 0.00 0.00 85 1016.3
20180817142542 71 0 0.0 0.0 0.00 0.00 0.00 88 1016.4
20180817141550 71 13 0.0 0.0 0.00 0.00 0.00 89 1016.4
20180817140603 70 333 0.0 0.0 0.00 0.00 0.00 90 1016.5
20180817135538 69 331 0.0 0.0 0.00 0.00 0.00 91 1016.5
20180817134501 68 16 0.0 0.0 0.00 0.00 0.00 92 1016.5
20180817133501 67 355 0.0 0.0 0.00 0.00 0.00 92 1016.4
20180817132505 67 355 0.0 0.0 0.00 0.00 0.00 93 1016.2
20180817131531 66 288 0.0 0.0 0.00 0.00 0.00 93 1016.2
20180817130546 66 348 0.0 0.0 0.00 0.00 0.00 93 1016.3
20180817125521 65 344 0.0 0.0 0.00 0.00 0.00 94 1016.2
20180817124510 65 328 0.0 0.0 0.00 0.00 0.00 94 1016.2
20180817123505 65 316 0.0 0.0 0.00 0.00 0.00 94 1016.0
20180817122523 65 345 0.0 0.0 0.00 0.00 0.00 94 1016.0
20180817121519 65 0 0.0 0.0 0.00 0.11 0.00 94 1016.1
20180817120506 65 346 0.0 0.0 0.00 0.13 0.00 94 1016.0
20180817115527 65 346 0.0 0.0 0.00 0.14 0.00 94 1016.0
20180817114501 65 346 0.0 0.0 0.00 0.14 0.00 94 1015.9
20180817113446 65 348 0.0 0.0 0.00 0.16 0.00 94 1015.6
20180817112437 65 336 0.0 0.0 0.00 0.21 0.00 94 1015.5
20180817111405 65 337 0.0 0.0 0.00 0.25 0.00 94 1015.5
20180817110341 65 337 0.0 0.0 0.00 0.25 0.00 93 1015.2
20180817105327 65 0 0.0 0.0 0.00 0.25 0.00 93 1015.1
20180817104346 65 0 0.0 0.0 0.00 0.25 0.00 93 1015.0
20180817103327 65 0 0.0 0.0 0.00 0.25 0.00 93 1015.0
20180817102339 65 0 0.0 0.0 0.00 0.25 0.00 93 1014.8
20180817101314 65 0 0.0 0.0 0.00 0.25 0.00 93 1014.7
20180817100504 65 0 0.0 0.0 0.00 0.26 0.00 93 1014.7
20180817095521 65 0 0.0 0.0 0.00 0.26 0.00 93 1014.6
20180817094454 65 0 0.0 0.0 0.00 0.26 0.00 93 1014.5
20180817093422 66 0 0.0 0.0 0.00 0.26 0.00 93 1014.5
20180817092429 66 0 0.0 0.0 0.00 0.26 0.00 93 1014.5
20180817091444 66 336 0.0 0.0 0.00 0.26 0.00 93 1014.6
20180817090417 66 346 0.0 0.0 0.00 0.26 0.00 93 1014.6
20180817085428 66 309 0.0 0.0 0.00 0.26 0.00 93 1014.6
20180817084450 66 349 0.0 0.0 0.00 0.26 0.00 93 1014.7
20180817083500 66 338 0.0 0.0 0.00 0.26 0.00 93 1014.5
20180817082434 66 349 0.0 0.0 0.00 0.26 0.00 93 1014.5
20180817081417 66 325 0.0 0.0 0.00 0.26 0.00 92 1014.5
20180817080405 66 304 0.0 0.0 0.00 0.26 0.00 92 1014.4
20180817075424 66 333 0.0 0.0 0.00 0.26 0.00 92 1014.3
20180817074424 67 331 0.0 0.0 0.00 0.26 0.00 92 1014.4
20180817073348 67 334 0.0 0.0 0.00 0.26 0.00 91 1014.5
20180817072402 67 324 0.0 0.0 0.00 0.26 0.00 91 1014.5
20180817071359 67 328 0.0 0.0 0.00 0.26 0.00 91 1014.6
20180817070337 68 340 0.0 0.0 0.00 0.26 0.00 90 1014.6
20180817065335 68 0 0.0 0.0 0.00 0.26 0.00 90 1014.7
20180817064339 68 0 0.0 0.0 0.00 0.26 0.00 90 1014.6
20180817063340 68 0 0.0 0.0 0.00 0.26 0.00 90 1014.8
20180817062332 69 0 0.0 0.0 0.00 0.26 0.00 89 1014.7
20180817061256 69 0 0.0 0.0 0.00 0.26 0.00 89 1014.8
20180817060222 69 0 0.0 0.0 0.00 0.26 0.00 89 1014.8
20180817055243 69 0 0.0 0.0 0.00 0.26 0.00 89 1014.9
20180817054250 69 355 0.0 0.0 0.00 0.26 0.00 88 1014.8
20180817053309 69 341 0.0 0.0 0.00 0.26 0.00 88 1014.9
20180817052328 70 343 0.0 0.0 0.00 0.26 0.00 88 1014.9
20180817051255 70 327 0.0 0.0 0.00 0.26 0.00 88 1015.0
20180817050252 70 323 0.0 0.0 0.00 0.26 0.00 87 1014.8
20180817045232 70 321 0.0 0.0 0.00 0.26 0.26 87 1014.8
20180817044255 70 321 0.0 0.0 0.00 0.26 0.26 87 1014.7
20180817043306 70 321 0.0 0.0 0.00 0.26 0.26 86 1014.6
20180817042300 70 0 0.0 0.0 0.00 0.26 0.26 85 1014.7
20180817041234 70 0 0.0 0.0 0.00 0.26 0.26 85 1014.5
20180817040229 70 0 0.0 0.0 0.00 0.26 0.26 85 1014.2
20180817035230 71 0 0.0 0.0 0.00 0.26 0.26 84 1014.1
20180817034210 71 0 0.0 0.0 0.00 0.26 0.26 84 1014.1
20180817033157 71 0 0.0 0.0 0.00 0.26 0.26 83 1014.0
20180817032140 71 0 0.0 0.0 0.00 0.26 0.26 82 1014.2
20180817031149 72 0 0.0 0.0 0.00 0.26 0.26 82 1014.2
20180817030143 72 0 0.0 0.0 0.00 0.26 0.26 81 1014.0
20180817025111 72 15 0.0 0.0 0.00 0.26 0.26 81 1013.9
20180817024049 72 14 0.0 0.0 0.00 0.26 0.26 80 1013.7
20180817023026 72 17 0.0 0.0 0.00 0.26 0.26 80 1013.5
20180817022045 73 11 0.0 0.0 0.00 0.26 0.26 79 1013.1
20180817021102 73 13 0.0 0.0 0.00 0.26 0.26 78 1013.1
20180817020044 73 28 0.0 0.0 0.00 0.26 0.26 77 1012.9
20180817015032 74 5 0.0 0.0 0.00 0.26 0.26 77 1012.7
20180817014042 74 12 0.0 0.0 0.00 0.26 0.26 76 1012.4
20180817013053 75 31 0.0 0.0 0.00 0.26 0.26 75 1012.4
20180817012022 76 16 0.0 0.0 0.00 0.26 0.26 74 1012.4
20180817010958 76 0 0.0 0.0 0.00 0.26 0.26 72 1012.3